Location: St. Louis
(38.6270°N, 90.1994°W)
Time: 01:48:08
(UTC-06:00)

Courier 1B Rocket - Pass Details

Date: 30 November 2021
Orbit: 920 x 1202 km, 28.2° (Epoch: 16 January)

Event Time Altitude Azimuth Distance (km) Brightness Sun altitude
Rises 23:40:19 0° 230° (SW) 3,579 - -73.1°
Reaches altitude 10° 23:43:26 10° 217° (SW) 2,615 - -73.2°
Maximum altitude 23:48:18 24° 165° (SSE) 1,795 - -73.2°
Drops below altitude 10° 23:53:10 10° 114° (ESE) 2,612 - -73.2°
Sets 23:56:17 0° 101° (E) 3,574 - -73.2°
